Regional Weather Roundup
Issued by NWS

Home | Current Version | Previous Version | Graphics & Text | Print | Product List | Glossary On
Versions: 1 2 3 4 5 6 7 8 9 10 11 12 13 14 15 16 17 18 19 20 21 22 23 24 25 26 27 28
000
ASUS45 KSLC 171510
RWRUT

UTAH REGIONAL WEATHER ROUNDUP
NATIONAL WEATHER SERVICE SALT LAKE CITY UT
800 AM MST SUN DEC 17 2017

UTZ001>011-023>025-171600-

NORTHERN UTAH

CITY           SKY/WX    TMP DP  RH WIND       PRES   REMARKS
BRIGHAM CITY   CLEAR     19  16  87 CALM      30.22R
HILL AFB       CLEAR     20  17  89 CALM      30.18R
LOGAN          CLOUDY    23  18  81 CALM      30.22R
OGDEN          CLEAR     21  18  88 CALM      30.19R
SALT LAKE CITY MOCLDY    28  24  85 NW6       30.20R WCI  22
TOOELE VALLEY  CLOUDY    27  27 100 W3        30.22R
WENDOVER       PTCLDY    17  12  80 NE7       30.23R WCI   8
HEBER CITY     CLOUDY    28  19  69 N9        30.12S WCI  20
WEST JORDAN    CLOUDY    26  24  93 N6        30.20R WCI  19

$$

UTZ011>015-024>027-171600-

CENTRAL/NORTHEAST UTAH

CITY           SKY/WX    TMP DP  RH WIND       PRES   REMARKS
PROVO AIRPORT  CLOUDY    30  24  78 NW12      30.20R WCI  20
MOAB/CANYONLAN PTCLDY    14   6  70 CALM      30.06R
DELTA          CLOUDY    27  23  86 N6        30.19R WCI  20
PRICE          CLEAR     28  18  66 NW9       30.03R WCI  19
RICHFIELD      CLOUDY    28  27  93 NW3       30.15R
ROOSEVELT      CLOUDY    25  14  63 CALM      30.09R
VERNAL         CLOUDY    23  16  74 W6        30.07R WCI  16

$$

UTZ013>016-019>022-027-171600-

SOUTHERN UTAH

CITY           SKY/WX    TMP DP  RH WIND       PRES   REMARKS
BRYCE CANYON   CLOUDY    20  18  92 NW8       30.06R WCI  10
CEDAR CITY     CLOUDY    26  22  84 N10       30.10R WCI  16
MILFORD        CLOUDY    27  21  78 N12       30.16R WCI  17
ST GEORGE      MOSUNNY   36  21  54 SW8       30.08R WCI  30
HANKSVILLE     PTCLDY    14   5  67 NW6       30.11R WCI   5
KANAB          CLEAR     21  12  68 NE5       30.07R WCI  15
BLANDING         N/A     24   4  41 N6        30.08R WCI  17

$$

REGIONAL REPORTS     COLORADO/ARIZONA

CITY           SKY/WX    TMP DP  RH WIND       PRES   REMARKS
CRAIG, CO      CLOUDY    21  16  81 CALM      30.07R
GRAND JUNCTION CLOUDY    15   4  61 E6        30.07R WCI   6
RIFLE, CO      CLOUDY    13   6  74 SW5       30.08R WCI   5
MONTROSE, CO   CLOUDY    16   6  65 SE8       30.08R WCI   5
CORTEZ, CO     CLOUDY    19   1  45 NE7       30.03R WCI  10
COLORADO CITY    N/A     18  12  79 CALM      30.06R
PAGE, AZ       PTCLDY    27  13  55 CALM      30.04R
GRAND CANYON   PTCLDY    13   1  59 CALM      30.00R
KINGMAN, AZ    CLEAR     33  20  58 E10       29.99R WCI  25
FLAGSTAFF, AZ  MOCLDY    30   7  37 E3        29.98R

$$

REGIONAL REPORTS    NEVADA/IDAHO/WYOMING

CITY           SKY/WX    TMP DP  RH WIND       PRES   REMARKS
LAS VEGAS, NV  PTCLDY    47  19  33 N21G32    30.06R
ELY, NY        PTCLDY     1  -2  87 S9        30.17R WCI -14
ELKO, NV       PTCLDY    11   7  84 E3        30.22R
POCATELLO, ID  CLOUDY    23  19  85 SW15      30.21S WCI  10
BURLEY, ID     PTCLDY    17  10  74 S3        30.21S
EVANSTON, WY   LGT SNOW  17  15  92 W3        30.09F FOG
ROCK SPRINGS,  CLOUDY    19  13  77 W28       30.03R WCI   1

$$




USA.gov is the U.S. government's official web portal to all federal, state and local government web resources and services.